This is the latest recevied weather packets stored in our database for station/object KI5GCD-13. If no packets are shown the sender has not sent any weather packets the latest 10 day(s).
| Time | Temp. | Humidity | Pressure | Rain* | Wind** | Luminosity | Snow |
|---|---|---|---|---|---|---|---|
| 1778082888 | 12.22° C | 72% | 1013.2 hPa | 0 mm | 3.13 m/s, 25° | - | - |
| 1778082587 | 12.78° C | 72% | 1013.2 hPa | 0 mm | 1.79 m/s, 4° | - | - |
| 1778082287 | 12.78° C | 72% | 1013.4 hPa | 0 mm | 0.89 m/s, 195° | - | - |
| 1778081987 | 12.22° C | 72% | 1013.5 hPa | 0 mm | 1.34 m/s, 75° | - | - |
| 1778081687 | 12.22° C | 72% | 1013.6 hPa | 0 mm | 2.24 m/s, 47° | - | - |
| 1778081387 | 12.22° C | 73% | 1013.6 hPa | 0 mm | 0.89 m/s, 5° | - | - |
| 1778081087 | 12.22° C | 73% | 1013.6 hPa | 0 mm | 1.34 m/s, 47° | - | - |
| 1778080787 | 11.11° C | 76% | 1013.3 hPa | 0 mm | 0.45 m/s, 305° | - | - |
| 1778080487 | 11.67° C | 75% | 1013.1 hPa | 0 mm | 1.79 m/s, 17° | - | - |
| 1778080187 | 11.67° C | 78% | 1013.3 hPa | 0 mm | 0.89 m/s, 249° | - | - |
| 1778079887 | 11.11° C | 77% | 1013.1 hPa | 0 mm | 1.34 m/s, 87° | - | - |
| 1778079587 | 11.11° C | 78% | 1013.3 hPa | 0 mm | 1.79 m/s, 25° | - | - |
| 1778079287 | 11.11° C | 78% | 1013.2 hPa | 0 mm | 0.89 m/s, 51° | - | - |
| 1778078987 | 10° C | 81% | 1013.2 hPa | 0 mm | 0.45 m/s, 235° | - | - |
| 1778078687 | 10° C | 81% | 1013.2 hPa | 0 mm | 0.89 m/s, 280° | - | - |
| 1778078388 | 10° C | 80% | 1013.2 hPa | 0 mm | 1.34 m/s, 62° | - | - |
| 1778078087 | 10° C | 82% | 1013.4 hPa | 0 mm | 0.45 m/s, 267° | - | - |
| 1778077787 | 10° C | 82% | 1013.5 hPa | 0 mm | 1.34 m/s, 64° | - | - |
| 1778077487 | 9.44° C | 82% | 1013.4 hPa | 0 mm | 0.45 m/s, 24° | - | - |
| 1778077187 | 9.44° C | 81% | 1013.5 hPa | 0 mm | 0.89 m/s, 241° | - | - |
| 1778076887 | 9.44° C | 82% | 1013.6 hPa | 0 mm | 0.45 m/s, 92° | - | - |
| 1778076587 | 9.44° C | 82% | 1013.5 hPa | 0 mm | 3.13 m/s, 41° | - | - |
| 1778076287 | 9.44° C | 83% | 1013.5 hPa | 0 mm | 0.89 m/s, 107° | - | - |
| 1778075987 | 9.44° C | 84% | 1013.3 hPa | 0 mm | 2.24 m/s, 56° | - | - |
| 1778075687 | 9.44° C | 83% | 1013.5 hPa | 0 mm | 1.34 m/s, 75° | - | - |
* Rain latest hour (hover to see other rain measurements)
** Current wind speed in m/s (hover to see current wind gust speed)